Weather History for Grand Marais, MN

Change the Weather History Date:

Saturday, September 21, 2013

  Actual Average (KCKC) Record (KCKC)
Temperature  
Mean Temperature 50 °F -  
Max Temperature 59 °F 57 °F 68 °F (2001)
Min Temperature 42 °F 39 °F 26 °F (1999)
Degree Days  
Heating Degree Days 16    
Growing Degree Days 0 (Base 50)    
Moisture  
Dew Point 38 °F    
Average Humidity 66    
Maximum Humidity 82    
Minimum Humidity 45    
Precipitation  
Precipitation 0.00 in - - ()
Sea Level Pressure  
Sea Level Pressure 29.92 in    
Wind  
Wind Speed 3 mph (North)    
Max Wind Speed 9 mph    
Max Gust Speed 17 mph    
Averages and records for this station are not official NWS values.
T = Trace of Precipitation, MM = Missing Value Source: NWS Daily Summary

Daily Weather History Graph

Daily Weather History Graph

Search for Another Location

Airport:

Trip Planner

Search our weather history database for the weather conditions in past years. The results will help you decide how hot, cold, wet, or windy it might be!

Date:

Astronomy

Sep. 21, 2013 Rise Set
Actual Time 6:47 AM CDT 7:00 PM CDT
Civil Twilight 6:16 AM CDT 7:31 PM CDT
Nautical Twilight 5:39 AM CDT 8:07 PM CDT
Astronomical Twilight 5:02 AM CDT 8:45 PM CDT
Moon 7:56 PM CDT (9/21) 9:18 AM CDT (9/21)
Length of Visible Light 13h 15m
Length of Day
12h 13m
Waning Gibbous, 94% of the Moon is Illuminated
Sep 21
Waning Gibbous
Sep 26
Last Quarter
Oct 4
New
Oct 11
First Quarter
Oct 18
Full

Hourly Weather History & Observations

Time (CDT) Temp. Windchill Dew Point Humidity Pressure Visibility Wind Dir Wind Speed Gust Speed Precip Events Conditions
12:56 AM 48.9 °F - 41.0 °F 74% 29.83 in - North 5.8 mph - N/A   Unknown
1:56 AM 46.9 °F - 41.0 °F 80% 29.84 in - Calm Calm - N/A   Unknown
2:56 AM 45.0 °F - 39.9 °F 82% 29.84 in - Calm Calm - N/A   Unknown
3:56 AM 44.1 °F - 37.9 °F 79% 29.86 in - Calm Calm - N/A   Unknown
4:56 AM 43.0 °F - 37.9 °F 82% 29.87 in - Calm Calm - N/A   Unknown
5:56 AM 42.1 °F - 37.0 °F 82% 29.88 in - Calm Calm - N/A   Unknown
6:56 AM 43.0 °F - 37.9 °F 82% 29.90 in - Calm Calm - N/A   Unknown
7:56 AM 46.9 °F - 37.9 °F 71% 29.92 in - Variable 6.9 mph - N/A   Unknown
8:56 AM 48.9 °F - 36.0 °F 61% 29.91 in - Variable 6.9 mph 17.3 mph N/A   Unknown
9:56 AM 50.0 °F - 36.0 °F 59% 29.91 in - Variable 5.8 mph - N/A   Unknown
10:56 AM 52.0 °F - 36.0 °F 54% 29.92 in - Variable 5.8 mph - N/A   Unknown
11:56 AM 52.0 °F - 36.0 °F 54% 29.93 in - Variable 6.9 mph - N/A   Unknown
12:56 PM 55.0 °F - 36.0 °F 49% 29.92 in - Variable 6.9 mph - N/A   Unknown
1:56 PM 55.9 °F - 37.9 °F 51% 29.92 in - Variable 3.5 mph - N/A   Unknown
2:56 PM 57.0 °F - 36.0 °F 45% 29.93 in - NNW 9.2 mph - N/A   Unknown
3:56 PM 57.0 °F - 37.9 °F 49% 29.93 in - Calm Calm - N/A   Unknown
4:56 PM 55.9 °F - 35.1 °F 45% 29.93 in - Variable 6.9 mph - N/A   Unknown
5:56 PM 53.1 °F - 37.0 °F 55% 29.94 in - Calm Calm - N/A   Unknown
6:56 PM 48.0 °F - 41.0 °F 77% 29.96 in - Calm Calm - N/A   Unknown
7:56 PM 45.0 °F 42.6 °F 39.9 °F 82% 29.97 in - NNW 4.6 mph - N/A   Unknown
8:56 PM 46.0 °F 43.9 °F 37.9 °F 73% 29.98 in - NNW 4.6 mph - N/A   Unknown
9:56 PM 45.0 °F 42.6 °F 37.9 °F 76% 29.99 in - NNW 4.6 mph - N/A   Unknown
10:56 PM 46.0 °F 43.9 °F 36.0 °F 68% 30.00 in - North 4.6 mph - N/A   Unknown
11:56 PM 46.0 °F 43.9 °F 35.1 °F 66% 30.02 in - NNE 4.6 mph - N/A   Unknown